Location: �perlecques
(50.8057°N, 2.1521°E)
Time: 23:22:10
(UTC+00:00)

Transit 2A - All Passes

Search period start: 28 July 2021 00:00
Search period end: 07 August 2021 00:00
Orbit: 598 x 960 km, 66.7° (Epoch: 28 July)

Date Brightness Start Highest point End Pass type
(mag) Time Alt. Az. Time Alt. Az. Time Alt. Az.
28 Jul - 05:51:51 10° SE 05:53:48 13° ESE 05:55:48 10° ENE daylight
28 Jul - 07:31:39 10° SW 07:36:04 86° ESE 07:40:50 10° NE daylight
28 Jul - 09:16:14 10° W 09:19:54 23° NNW 09:23:49 10° NNE daylight
28 Jul - 11:02:38 10° NNW 11:04:56 13° N 11:07:19 10° NNE daylight
28 Jul - 12:46:40 10° NNW 12:50:10 18° NNE 12:53:52 10° ENE daylight
28 Jul - 14:29:24 10° NNW 14:34:30 49° NE 14:40:07 10° ESE daylight
28 Jul - 16:12:41 10° NW 16:17:40 39° WSW 16:23:06 10° S daylight
29 Jul - 06:57:35 10° SSW 07:01:55 61° ESE 07:06:35 10° NE daylight
29 Jul - 08:41:31 10° W 08:45:27 28° NW 08:49:41 10° NNE daylight
29 Jul - 10:27:51 10° NW 10:30:19 14° N 10:32:52 10° NNE daylight
29 Jul - 12:12:29 10° NNW 12:15:36 16° NNE 12:18:54 10° NE daylight
29 Jul - 13:55:17 10° NNW 14:00:10 39° NE 14:05:32 10° ESE daylight
29 Jul - 15:38:21 10° NW 15:43:34 53° WSW 15:49:17 10° SSE daylight
30 Jul - 06:23:41 10° S 06:27:49 42° ESE 06:32:15 10° NE daylight
30 Jul - 08:06:54 10° WSW 08:11:03 36° NW 08:15:33 10° NNE daylight
30 Jul - 09:52:59 10° NW 09:55:43 15° NNW 09:58:34 10° NNE daylight
30 Jul - 11:38:14 10° NNW 11:41:01 15° NNE 11:43:57 10° NE daylight
30 Jul - 13:21:09 10° NNW 13:25:48 31° NE 13:30:51 10° E daylight
30 Jul - 15:04:04 10° NW 15:09:25 71° WSW 15:15:17 10° SSE daylight
30 Jul - 16:48:59 10° WNW 16:51:52 14° WSW 16:54:53 10° SW daylight
31 Jul - 05:49:58 10° S 05:53:47 29° ESE 05:57:49 10° NE daylight
31 Jul - 07:32:23 10° WSW 07:36:43 47° NW 07:41:24 10° NNE daylight
31 Jul - 09:18:06 10° WNW 09:21:08 17° NNW 09:24:20 10° NNE daylight
31 Jul - 11:03:53 10° NNW 11:06:25 14° N 11:09:03 10° NE daylight
31 Jul - 12:47:02 10° NNW 12:51:23 26° NNE 12:56:03 10° E daylight
31 Jul - 14:29:51 10° NW 14:35:13 88° NE 14:41:08 10° SE daylight
31 Jul - 16:13:58 10° WNW 16:17:55 20° WSW 16:22:04 10° SSW daylight
01 Aug - 05:16:33 10° SSE 05:19:48 20° ESE 05:23:12 10° ENE daylight
01 Aug - 06:58:00 10° SW 07:02:25 64° NW 07:07:14 10° NE daylight
01 Aug - 08:43:14 10° WNW 08:46:35 19° NNW 08:50:10 10° NNE daylight
01 Aug - 10:29:24 10° NNW 10:31:47 13° N 10:34:16 10° NNE daylight
01 Aug - 12:12:54 10° NNW 12:16:55 22° NNE 12:21:12 10° ENE daylight
01 Aug - 13:55:40 10° NW 14:00:59 68° NE 14:06:50 10° SE daylight
01 Aug - 15:39:19 10° NW 15:43:54 27° WSW 15:48:48 10° SSW daylight
02 Aug - 04:43:35 10° SE 04:45:52 14° ESE 04:48:14 10° ENE daylight
02 Aug - 06:23:45 10° SW 06:28:11 88° WNW 06:33:02 10° NE daylight
02 Aug - 08:08:25 10° W 08:12:05 23° NNW 08:16:01 10° NNE daylight
02 Aug - 09:54:47 10° NNW 09:57:10 13° N 09:59:39 10° NNE daylight
02 Aug - 11:38:44 10° NNW 11:42:24 19° NNE 11:46:16 10° ENE daylight
02 Aug - 13:21:30 10° NNW 13:26:42 52° NE 13:32:24 10° ESE daylight
02 Aug - 15:04:50 10° NW 15:09:50 37° WSW 15:15:15 10° S daylight
03 Aug - 05:49:39 10° SSW 05:54:02 65° ESE 05:58:47 10° NE daylight
03 Aug - 07:33:42 10° W 07:37:38 27° NNW 07:41:52 10° NNE daylight
03 Aug - 09:20:01 10° NW 09:22:32 14° N 09:25:10 10° NNE daylight
03 Aug - 11:04:33 10° NNW 11:07:50 17° NNE 11:11:19 10° ENE daylight
03 Aug - 12:47:22 10° NNW 12:52:23 41° NE 12:57:52 10° ESE daylight
03 Aug - 14:30:29 10° NW 14:35:44 50° WSW 14:41:28 10° SSE daylight
04 Aug - 05:15:43 10° S 05:19:56 45° ESE 05:24:28 10° NE daylight
04 Aug - 06:59:04 10° WSW 07:03:14 34° NW 07:07:44 10° NNE daylight
04 Aug - 08:45:11 10° NW 08:47:56 15° NNW 08:50:49 10° NNE daylight
04 Aug - 10:30:18 10° NNW 10:33:15 15° NNE 10:36:21 10° NE daylight
04 Aug - 12:13:14 10° NNW 12:18:00 33° NE 12:23:12 10° ESE daylight
04 Aug - 13:56:12 10° NW 14:01:35 67° WSW 14:07:30 10° SSE daylight
04 Aug - 15:41:18 10° WNW 15:44:00 14° WSW 15:46:47 10° SW daylight
05 Aug - 04:41:58 10° S 04:45:52 31° ESE 04:50:03 10° NE daylight
05 Aug - 06:24:32 10° WSW 06:28:52 45° NW 06:33:35 10° NNE daylight
05 Aug - 08:10:18 10° WNW 08:13:21 17° NNW 08:16:34 10° NNE daylight
05 Aug - 09:55:58 10° NNW 09:58:39 14° N 10:01:27 10° NE daylight
05 Aug - 11:39:07 10° NNW 11:43:35 27° NNE 11:48:25 10° E daylight
05 Aug - 13:21:58 10° NW 13:27:24 88° SW 13:33:23 10° SE daylight
05 Aug - 15:06:11 10° WNW 15:10:03 19° WSW 15:14:06 10° SSW daylight
06 Aug - 04:08:28 10° SSE 04:11:53 22° ESE 04:15:29 10° ENE daylight
06 Aug - 05:50:08 10° SW 05:54:33 61° NW 05:59:25 10° NNE daylight
06 Aug - 07:35:26 10° WNW 07:38:48 19° NNW 07:42:23 10° NNE daylight
06 Aug - 09:21:31 10° NNW 09:24:01 14° N 09:26:39 10° NNE daylight
06 Aug - 11:04:58 10° NNW 11:09:07 23° NNE 11:13:35 10° E daylight
06 Aug - 12:47:46 10° NW 12:53:10 71° NE 12:59:06 10° SE daylight
06 Aug - 14:31:29 10° WNW 14:36:02 26° WSW 14:40:54 10° SSW daylight
